Location: Cuzcurrita-R�o Tir�n
(42.5415°N, 2.9642°W)
Time: 01:18:42
(UTC+00:00)

Cosmos 2263 Rocket - Pass Details

Date: 17 January 2021
Orbit: 825 x 847 km, 71.0° (Epoch: 08 March)

Event Time Altitude Azimuth Distance (km) Brightness Sun altitude
Rises 18:01:51 0° 204° (SSW) 3,393 6.0 -10.2°
Reaches altitude 10° 18:04:17 10° 205° (SSW) 2,462 5.3 -10.6°
Maximum altitude 18:09:58 85° 293° (WNW) 854 2.3 -11.6°
Drops below altitude 10° 18:15:39 10° 23° (NNE) 2,469 4.3 -12.6°
Enters shadow 18:17:09 - 24° (NNE) 3,039 4.7 -12.9°
